Regional Weather Roundup
Issued by NWS Cleveland, OH

Home | Current Version | Previous Version | Graphics & Text | Print | Product List | Glossary On
Versions: 1 2 3 4 5 6 7 8 9 10 11 12 13 14 15 16 17 18 19 20 21 22 23 24 25 26 27 28 29 30 31 32 33 34 35 36 37 38 39 40 41 42 43 44 45 46 47 48 49 50
000
ASUS41 KCLE 230000
RWRCLE
OHIO REGIONAL WEATHER ROUNDUP
NATIONAL WEATHER SERVICE WILMINGTON, OH
700 PM EST SAT NOV 22 2014

NOTE: "FAIR" INDICATES FEW OR NO CLOUDS BELOW 12,000 FEET WITH NO
SIGNIFICANT WEATHER AND/OR OBSTRUCTIONS TO VISIBILITY.

OHZ001>008-015>018-024>027-034-035-043-044-230100-
   NORTHWEST OHIO

CITY           SKY/WX    TMP DP  RH WIND       PRES   REMARKS
DEFIANCE       LGT RAIN  50  42  74 S16       29.98S
FINDLAY        CLOUDY    50  40  68 S16       30.00S
TOLEDO EXPRESS MOCLDY    48  41  76 SW9       29.97S
TOLEDO METCALF CLOUDY    48  40  73 S12       29.99S
LIMA           CLOUDY    51  40  65 S10       30.02S
$$

OHZ009>014-019>023-028>033-038-089-230100-
   NORTHEAST OHIO

CITY           SKY/WX    TMP DP  RH WIND       PRES   REMARKS
CLE-HOPKINS    CLOUDY    46  35  65 S14       30.06F
CLE-LAKEFRONT  CLOUDY    45  35  68 S16       30.01F
CUY CO. ARPT   LGT RAIN  46  32  57 S17G25    30.03F
LORAIN-ELYRIA  CLOUDY    47  37  68 S14       30.03F
ASHTABULA      CLOUDY    41  35  79 S12       30.05F
AKRON-CANTON   CLOUDY    43  32  65 SW13      30.08F
WOOSTER        NOT AVBL
MANSFIELD      CLOUDY    47  37  68 S12       30.05F
YOUNGSTOWN     CLOUDY    42  33  70 S10       30.08F
$$

OHZ042-051>053-060>062-070>072-077>081-230100-
  SOUTHWEST OHIO

CITY           SKY/WX    TMP DP  RH WIND       PRES   REMARKS
CINC-COVINGTON MOCLDY    54  33  45 S8        30.09S
CINC-LUNKEN    CLOUDY    53  36  52 SW7       30.10S
HAMILTON       CLOUDY    57  36  45 S7        30.08F
DAYTON         NOT AVBL
WRIGHT-PAT AFB NOT AVBL
DAYTON GENERAL CLOUDY    53  38  56 S9        30.07F
WILMINGTON     CLOUDY    47  36  65 S6        30.09S
$$

OHZ036-037-039>041-045>050-054>059-063>069-073>076-082>088-230100-
  CENTRAL AND SOUTHEAST OHIO

CITY           SKY/WX    TMP DP  RH WIND       PRES   REMARKS
COLUMBUS       CLOUDY    48  35  60 S5        30.09F
OSU AIRPORT    CLOUDY    48  37  65 S7        30.08S
BOLTON FIELD   CLOUDY    48  36  61 S9        30.09S
RICKENBACK AFB NOT AVBL
NEWARK         CLOUDY    46  31  55 S5        30.10F
MARION         CLOUDY    46  37  71 S10       30.06S
LANCASTER      CLOUDY    46  33  60 SE6       30.11F
ZANESVILLE     PTCLDY    38  30  73 SE3       30.12F
NEW PHILLY     CLOUDY    46  30  53 S7        30.12F
$$


USA.gov is the U.S. government's official web portal to all federal, state and local government web resources and services.